GW6099 Weather Reports


Display with metric or nautical units.
time (UTC)temp
F
wind
direction
speed
MPH
gust
MPH
rain 1hr
in
rain 24hr
in
rain mn
in
humidity
%
barometer
mb
20260504081522 57 101 0.0 0.0 0.00 0.00 0.00 74 1010.3
20260504050007 62 161 0.0 3.0 0.00 0.00 0.00 61 1011.7
20260504044522 61 149 1.0 6.0 0.00 0.00 0.00 62 1011.8
20260504043017 60 150 0.0 0.0 0.00 0.00 0.00 63 1011.9
20260504041519 60 119 0.0 0.0 0.00 0.00 0.00 63 1012.1
20260504040024 60 123 0.0 0.0 0.00 0.00 0.00 64 1012.1
20260504034508 59 100 0.0 0.0 0.00 0.00 0.00 66 1012.1
20260504033016 59 104 0.0 0.0 0.00 0.00 0.00 67 1012.3
20260504031518 60 104 0.0 0.0 0.00 0.00 0.00 66 1012.4
20260504030033 59 104 0.0 0.0 0.00 0.00 0.00 66 1012.7
20260504024507 60 104 0.0 0.0 0.00 0.00 0.00 66 1012.6
20260504023012 61 104 0.0 0.0 0.00 0.00 0.00 63 1012.4
20260504021516 61 104 0.0 0.0 0.00 0.00 0.00 62 1012.4
20260504020022 63 104 0.0 0.0 0.00 0.00 0.00 57 1012.3
20260504014522 64 104 0.0 0.0 0.00 0.00 0.00 54 1012.1
20260504013010 66 104 0.0 0.0 0.00 0.00 0.00 51 1012.0
20260504011528 68 127 0.0 0.0 0.00 0.00 0.00 46 1012.0
20260504010022 69 195 0.0 0.0 0.00 0.00 0.00 44 1012.0
20260504004524 71 219 0.0 1.0 0.00 0.00 0.00 42 1011.9
20260504003026 72 207 0.0 1.0 0.00 0.00 0.00 40 1012.0
20260504001512 74 210 0.0 1.0 0.00 0.00 0.00 39 1012.0
20260504000013 75 156 0.0 7.0 0.00 0.00 0.00 38 1011.9
20260503234530 77 186 0.0 4.0 0.00 0.00 0.00 36 1012.0
20260503233021 77 233 0.0 7.0 0.00 0.00 0.00 34 1012.1
20260503231529 78 208 3.0 12.0 0.00 0.00 0.00 33 1012.0
20260503230003 78 274 3.0 10.0 0.00 0.00 0.00 33 1012.0
20260503224502 78 242 1.0 16.0 0.00 0.00 0.00 35 1012.1
20260503223003 78 139 4.0 7.0 0.00 0.00 0.00 36 1012.3
20260503221504 78 160 5.0 13.0 0.00 0.00 0.00 34 1012.3
20260503220010 78 224 1.0 13.0 0.00 0.00 0.00 34 1012.5
20260503214502 78 222 2.0 12.0 0.00 0.00 0.00 36 1012.7
20260503213008 78 251 3.0 11.0 0.00 0.00 0.00 35 1012.9
20260503211504 78 263 4.0 14.0 0.00 0.00 0.00 35 1013.1
20260503210006 77 283 5.0 11.0 0.00 0.00 0.00 36 1013.4
20260503204506 77 231 3.0 16.0 0.00 0.00 0.00 38 1013.7
20260503203008 77 210 3.0 15.0 0.00 0.00 0.00 40 1013.9
20260503201504 77 257 3.0 11.0 0.00 0.00 0.00 42 1014.1
20260503200008 76 241 3.0 8.0 0.00 0.00 0.00 42 1014.3
20260503194507 76 235 2.0 9.0 0.00 0.00 0.00 46 1014.7
20260503193008 75 167 4.0 8.0 0.00 0.00 0.00 45 1015.1
20260503191513 74 124 1.0 10.0 0.00 0.00 0.00 44 1015.3
20260503190008 74 207 6.0 11.0 0.00 0.00 0.00 44 1015.6
20260503184509 73 219 4.0 11.0 0.00 0.00 0.00 45 1015.7
20260503183006 72 220 1.0 9.0 0.00 0.00 0.00 46 1016.0
20260503181507 72 219 2.0 9.0 0.00 0.00 0.00 46 1016.3
20260503180016 71 221 2.0 15.0 0.00 0.00 0.00 45 1016.8
20260503174509 70 203 0.0 11.0 0.00 0.00 0.00 46 1017.2
20260503173010 70 188 2.0 9.0 0.00 0.00 0.00 46 1017.5
20260503171513 69 150 2.0 7.0 0.00 0.00 0.00 46 1017.9